257  
ASUS41 KLWX 140811  
RWRLWX  
 
REGIONAL WEATHER ROUNDUP  
NATIONAL WEATHER SERVICE BALTIMORE MD/WASHINGTON DC  
300 AM EST THU DEC 14 2017  
 
NOTE: "FAIR" INDICATES FEW OR NO CLOUDS BELOW 12,000 FEET  
WITH NO SIGNIFICANT WEATHER AND/OR S TO VISIBILITY
.  
TC=TEMPERATURE CELSIUS  
 
* =NON NWS SITE. STATION DOES NOT REPORT PRECIPITATION (E.G. RAIN,  
SNOW, ETC.), THUNDER, OR FOG.
 
 
DCZ001-MDZ009-015-VAZ040>042-051-053>054-140900-  
WASHINGTON METRO  
 
CITY SKY/WX TMP DP RH WIND PRES REMARKS
 
WASHINGTON NAT PTCLDY 35 18 49 S10 29.53F WCI 27  
DULLES MOCLDY 32 15 49 S8 29.50F WCI 25  
ANDREWS AFB CLEAR 33 15 48 S10 29.51F WCI 25  
FT BELVOIR CLEAR 36 19 49 S5 29.52F  
QUANTICO PTCLDY 38 19 46 SW9 29.55F  
COLLEGE PARK* CLOUDY 35 15 44 S3 29.52S  
LEESBURG* CLOUDY 32 19 59 S5 29.50F  
MANASSAS* MOCLDY 32 18 56 S3 29.52F  
GAITHERSBURG* CLOUDY 34 15 46 S7 29.50F  
 

 
 
MDZ006>007-011-014-140900-  
BALTIMORE METRO  
 
CITY SKY/WX TMP DP RH WIND PRES REMARKS
 
BWI AIRPORT MOCLDY 34 18 52 SW5 29.52F  
MD SCIENCE CTR N/A 35 19 52 MISG 29.53F  
MARTIN STATE CLOUDY 36 25 64 CALM 29.54F  
ANNAPOLIS MOCLDY 37 18 46 SW10 29.53F  
FORT MEADE* CLOUDY 32 21 64 SW5 29.54F  
 

 
 
MDZ012-015-019>023-140900-  
MARYLAND EASTERN SHORE  
 
CITY SKY/WX TMP DP RH WIND PRES REMARKS
 
OCEAN CITY CLOUDY 39 25 57 SW18 29.59F  
SALISBURY CLEAR 32 22 66 S5 29.58F  
BAY BRIDGE AP* CLOUDY 39 19 45 SW13G24 29.54S  
CAMBRIDGE* MOCLDY 39 19 45 SW7G17 29.57S  
EASTON* PTCLDY 40 20 45 SW14G20 29.58F  
 

 
 
MDZ017>025-140900-  
SOUTHERN MARYLAND  
 
CITY SKY/WX TMP DP RH WIND PRES REMARKS
 
PATUXENT RIVER CLEAR 37 18 46 SW16G23 29.56S WCI 28  
ST INIGOES CLEAR 39 22 50 SW15G26 29.57S  
LEONARDTOWN* CLEAR 36 19 51 SW8 29.58R  
 

 
 
MDZ003>005-140900-  
NORTH CENTRAL MARYLAND  
 
CITY SKY/WX TMP DP RH WIND PRES REMARKS
 
FREDERICK* CLOUDY 30 28 93 CALM 29.53S  
HAGERSTOWN APT CLOUDY 27 24 89 CALM 29.45F  
WESTMINSTER* CLOUDY 28 23 80 SE6 29.47F  
 

 
 
MDZ501>502-140900-  
WESTERN MARYLAND  
 
CITY SKY/WX TMP DP RH WIND PRES REMARKS
 
OAKLAND* CLOUDY 28 27 93 W10 29.34R WCI 19  
CUMBERLAND* CLOUDY 27 27 100 CALM 29.49S  
 

 
 
VAZ025>031-140900-  
SHENANDOAH VALLEY  
 
CITY SKY/WX TMP DP RH WIND PRES REMARKS
 
WINCHESTER* CLOUDY 28 16 59 SE3 29.45S  
FRONT ROYAL* MOCLDY 32 16 51 CALM 29.44F  
LURAY* CLOUDY 36 18 48 SW9 29.46S WCI 29  
NEW MARKET* CLOUDY 33 14 45 W5 29.45F  
STAUNTON* CLEAR 33 17 50 S8 29.49S WCI 27  
WAYNESBORO* PTCLDY 38 17 42 SW7 29.47S  
 

 
 
WVZ021-048>050-054>055-140900-  
EASTERN WEST VIRGINIA PANHANDLE  
 
CITY SKY/WX TMP DP RH WIND PRES REMARKS
 
MARTINSBURG CLOUDY 27 23 85 CALM 29.46S  
PETERSBURG* CLOUDY 43 26 49 W13G35 29.42S  
 

 
 
VAZ036>039-050-140900-  
CENTRAL FOOTHILLS  
 
CITY SKY/WX TMP DP RH WIND PRES REMARKS
 
CHARLOTTESVILL CLEAR 33 16 49 S12 29.51S WCI 24  
CULPEPER* MOCLDY 34 14 45 SW8 29.52F WCI 27  
ORANGE* PTCLDY 32 18 55 CALM 29.52S  
GORDONSVILLE* CLEAR 24 17 74 SW3 29.53S  
WARRENTON* PTCLDY 35 13 40 SW7 29.51S  
 

 
 
VAZ055>057-140900-  
NORTH AND CENTRAL PIEDMONT  
 
CITY SKY/WX TMP DP RH WIND PRES REMARKS
 
FREDERICKSBRG* CLEAR 35 19 54 S10 29.54F WCI 27  
STAFFORD* PTCLDY 33 16 49 S7 29.58S  
 

 
 
NCZ024-NYZ072-PAZ021-071-VAZ022-071-140900-  
OTHER REGIONAL OBSERVATIONS  
 
CITY SKY/WX TMP DP RH WIND PRES REMARKS
 
NEW YORK CITY LGT SNOW 25 22 88 CALM 29.60F FOG  
PHILADELPHIA CLOUDY 29 25 85 E3 29.55F  
PITTSBURGH LGT SNOW 33 28 81 W14G30 29.42R BLWGSNOWWCI 23  
ROANOKE CLEAR 43 19 38 W13G18 29.56R  
RICHMOND PTCLDY 38 19 46 S13 29.60S  
RALEIGH CLEAR 36 19 50 SW13 29.70S WCI 27  
 

 
 
ANZ530>537-140900-  
MARINE OBSERVATIONS  
 
STATION/POSITION TIME TEMP WIND PRES
 
AIR SEA DIR/SP/G  
(UTC) (F) (DEG/KT/KT) (MB)  
THOMAS PT LIGHT 0800 40 44 210/ 21/ 24 N/A  
BALT KEY BRIDGE 0748 36 200/ 6/ 9 999.5F  
COVE POINT 0748 38 230/ 14/ 20 1001.4F  
LEWISETTA 0736 39 41 240/ 14/ 19 1001.5F  
SOLOMONS ISLAND 0748 39 46 220/ 15/ 19 1000.8F  
PINEY POINT 0736 240/ 17/ 19 N/A  
 

 
 
 
 
CLICK HERE TO GO TO PREVIOUS BULLETINS.

The Nexlab VA Page
The Nexlab MD Page
The Nexlab WV Page Main Text Page